Indianapolis, IN

9:52 PM EDT on July 18, 2019 (GMT -0400)
Indianapolis Terry

Weather History for KTYQ - May, 2019

Change the Weather History Date:

Wednesday, May 22, 2019

  Actual Average (KEYE) Record (KEYE)
Temperature  
Mean Temperature 64 °F -  
Max Temperature 76 °F 69 °F 84 °F (2007)
Min Temperature 53 °F 51 °F 39 °F (1997)
Growing Degree Days 14 (Base 50)    
Moisture  
Dew Point 59 °F    
Average Humidity 88    
Maximum Humidity 100    
Minimum Humidity 70    
Precipitation  
Precipitation 0.36 in - - ()
Sea Level Pressure  
Sea Level Pressure 29.97 in    
Wind  
Wind Speed 10 mph ()    
Max Wind Speed 18 mph    
Max Gust Speed 24 mph    
Visibility 9.0 miles    
Events Rain    
Averages and records for this station are not official NWS values.
T = Trace of Precipitation, MM = Missing Value Source: Averaged Metar Reports

Daily Weather History Graph

Daily Weather History Graph

Search for Another Location

Airport or City:

Astronomy

May. 22, 2019 Rise Set
Actual Time 6:24 AM EDT 8:59 PM EDT
Civil Twilight 5:52 AM EDT 9:31 PM EDT
Nautical Twilight 5:13 AM EDT 10:10 PM EDT
Astronomical Twilight 4:30 AM EDT 10:54 PM EDT
Moon No Moon Rise 9:31 AM EDT (5/22)
Length of Visible Light 15h 38m
Length of Day
14h 35m
Waning Gibbous, 85% of the Moon is Illuminated
May 22
Waning Gibbous
May 26
Last Quarter
Jun 3
New
Jun 10
First Quarter
Jun 17
Full

Hourly Weather History & Observations

Time (EDT) Temp. Dew Point Humidity Pressure Visibility Wind Dir Wind Speed Gust Speed Precip Events Conditions
12:15 AM 53.1 °F 45.9 °F 77% 29.94 in 10.0 mi ESE 12.7 mph 17.3 mph N/A   Clear
12:35 AM 53.8 °F 46.2 °F 76% 29.94 in 10.0 mi ESE 11.5 mph - N/A   Clear
12:55 AM 54.5 °F 46.4 °F 74% 29.94 in 10.0 mi ESE 11.5 mph 19.6 mph N/A   Clear
1:15 AM 54.9 °F 46.4 °F 73% 29.94 in 10.0 mi ESE 12.7 mph 16.1 mph N/A   Clear
1:35 AM 55.4 °F 46.8 °F 73% 29.95 in 10.0 mi ESE 11.5 mph 18.4 mph N/A   Clear
1:55 AM 55.6 °F 47.3 °F 74% 29.93 in 10.0 mi ESE 13.8 mph 23.0 mph N/A   Clear
2:15 AM 55.6 °F 47.8 °F 75% 29.93 in 10.0 mi ESE 13.8 mph 19.6 mph N/A   Clear
2:35 AM 55.9 °F 48.2 °F 75% 29.93 in 10.0 mi SE 16.1 mph 19.6 mph N/A   Scattered Clouds
2:55 AM 56.3 °F 48.7 °F 76% 29.90 in 10.0 mi ESE 17.3 mph 21.9 mph N/A   Scattered Clouds
3:15 AM 56.7 °F 49.3 °F 76% 29.89 in 10.0 mi ESE 18.4 mph 23.0 mph N/A   Mostly Cloudy
3:35 AM 57.0 °F 49.5 °F 76% 29.89 in 10.0 mi SE 15.0 mph 20.7 mph N/A   Scattered Clouds
3:55 AM 56.8 °F 50.4 °F 79% 29.88 in 10.0 mi SE 15.0 mph 20.7 mph N/A Rain Light Rain
4:15 AM 57.2 °F 50.9 °F 79% 29.88 in 10.0 mi SE 13.8 mph 23.0 mph N/A Rain Light Rain
4:35 AM 56.5 °F 52.2 °F 85% 29.89 in 10.0 mi SSE 12.7 mph - 0.01 in Rain Light Rain
4:55 AM 55.8 °F 53.8 °F 93% 29.94 in 10.0 mi WSW 9.2 mph - 0.02 in Rain Rain
5:15 AM 54.7 °F 54.7 °F 100% 29.93 in 10.0 mi West 4.6 mph - 0.01 in Rain Rain
5:35 AM 54.0 °F 54.0 °F 100% 29.96 in 10.0 mi West 6.9 mph - 0.03 in Rain Rain
5:55 AM 54.0 °F 54.0 °F 100% 29.96 in 7.0 mi WNW 6.9 mph - 0.05 in Rain Rain
6:15 AM 53.6 °F 53.6 °F 100% 29.94 in 7.0 mi North 3.5 mph - 0.02 in Rain Light Rain
6:35 AM 53.6 °F 53.6 °F 100% 29.94 in 7.0 mi East 3.5 mph - 0.02 in   Overcast
6:55 AM 53.6 °F 53.6 °F 100% 29.93 in 5.0 mi ESE 5.8 mph - 0.03 in Rain Light Rain
7:15 AM 54.0 °F 54.0 °F 100% 29.94 in 5.0 mi Calm Calm - 0.01 in Rain Heavy Rain
7:35 AM 54.0 °F 54.0 °F 100% 29.96 in 4.0 mi Calm Calm - 0.02 in Rain Rain
7:55 AM 54.1 °F 54.1 °F 100% 29.96 in 1.8 mi Calm Calm - 0.09 in Rain Heavy Rain
8:15 AM 54.1 °F 54.1 °F 100% 29.96 in 2.5 mi East 5.8 mph - 0.03 in Rain Light Rain
8:35 AM 54.5 °F 54.5 °F 100% 29.99 in 7.0 mi SSE 6.9 mph - 0.03 in Rain Rain
8:55 AM 55.4 °F 55.4 °F 100% 29.96 in 7.0 mi SE 5.8 mph - 0.08 in Rain Light Rain
9:15 AM 55.4 °F 55.4 °F 100% 29.97 in 3.0 mi SE 4.6 mph - 0.03 in Rain Rain
9:35 AM 55.4 °F 55.4 °F 100% 29.95 in 4.0 mi SE 8.1 mph - 0.08 in Rain Light Rain
9:55 AM 56.7 °F 56.7 °F 100% 29.95 in 7.0 mi SE 4.6 mph - 0.08 in Rain Light Rain
10:20 AM 58.6 °F 58.6 °F 100% 29.96 in 10.0 mi SE 6.9 mph - N/A   Overcast
10:35 AM 58.1 °F 58.1 °F 100% 29.97 in 10.0 mi SSE 8.1 mph - N/A Rain Light Rain
10:55 AM 57.7 °F 57.7 °F 100% 29.97 in 7.0 mi SSE 8.1 mph - N/A Rain Light Rain
11:15 AM 58.1 °F 58.1 °F 100% 29.97 in 10.0 mi SSE 5.8 mph - N/A Rain Light Rain
11:35 AM 59.5 °F 59.5 °F 100% 29.99 in 10.0 mi SSE 8.1 mph - N/A   Overcast
11:55 AM 62.1 °F 62.1 °F 100% 29.99 in 10.0 mi SSE 11.5 mph - N/A   Mostly Cloudy
12:15 PM 63.1 °F 63.1 °F 100% 30.00 in 10.0 mi SSW 12.7 mph 19.6 mph N/A   Mostly Cloudy
12:35 PM 64.4 °F 63.9 °F 98% 30.00 in 10.0 mi SSW 11.5 mph - N/A   Overcast
12:55 PM 64.8 °F 63.9 °F 97% 30.00 in 10.0 mi SSW 12.7 mph - 0.01 in   Overcast
1:15 PM 65.8 °F 64.6 °F 96% 29.99 in 10.0 mi South 13.8 mph 18.4 mph N/A   Overcast
1:35 PM 67.1 °F 65.1 °F 93% 29.98 in 10.0 mi South 10.4 mph - N/A   Scattered Clouds
1:55 PM 68.4 °F 65.5 °F 90% 29.98 in 10.0 mi SSW 9.2 mph - N/A   Clear
2:15 PM 70.2 °F 65.5 °F 85% 29.98 in 10.0 mi South 11.5 mph - N/A   Clear
2:35 PM 70.2 °F 64.8 °F 83% 29.98 in 10.0 mi South 11.5 mph 18.4 mph N/A   Clear
2:55 PM 70.5 °F 64.0 °F 80% 29.98 in 10.0 mi SSW 12.7 mph 20.7 mph N/A   Clear
3:15 PM 71.6 °F 65.3 °F 80% 29.99 in 10.0 mi South 12.7 mph 17.3 mph N/A   Clear
3:35 PM 72.7 °F 63.0 °F 71% 29.99 in 10.0 mi SSW 11.5 mph 17.3 mph N/A   Clear
3:55 PM 73.4 °F 63.0 °F 70% 29.99 in 10.0 mi South 16.1 mph 23.0 mph N/A   Clear
4:15 PM 74.3 °F 66.4 °F 76% 29.99 in 10.0 mi SW 11.5 mph 23.0 mph N/A   Clear
4:35 PM 73.6 °F 66.2 °F 78% 29.99 in 10.0 mi SSW 17.3 mph 23.0 mph N/A   Scattered Clouds
4:55 PM 74.5 °F 66.0 °F 75% 29.99 in 10.0 mi SSW 11.5 mph 24.2 mph N/A   Scattered Clouds
5:15 PM 75.4 °F 66.6 °F 74% 29.99 in 10.0 mi SSW 17.3 mph 20.7 mph N/A   Clear
5:35 PM 75.2 °F 65.7 °F 72% 29.99 in 10.0 mi SSW 12.7 mph - N/A   Scattered Clouds
5:55 PM 76.1 °F 66.4 °F 72% 29.99 in 10.0 mi South 8.1 mph - N/A   Scattered Clouds
6:15 PM 75.4 °F 66.7 °F 74% 29.99 in 10.0 mi South 8.1 mph - N/A   Clear
6:35 PM 74.8 °F 66.4 °F 75% 29.99 in 10.0 mi South 11.5 mph - N/A   Clear
6:55 PM 74.3 °F 66.2 °F 76% 29.99 in 10.0 mi South 13.8 mph - N/A   Clear
7:15 PM 73.6 °F 66.7 °F 79% 29.99 in 10.0 mi South 10.4 mph - N/A   Clear
7:35 PM 73.4 °F 66.4 °F 79% 30.00 in 10.0 mi South 10.4 mph - N/A   Clear
7:55 PM 72.9 °F 65.7 °F 78% 30.00 in 10.0 mi South 10.4 mph - N/A   Clear
8:15 PM 71.8 °F 66.6 °F 84% 30.00 in 10.0 mi South 8.1 mph - N/A   Clear
8:35 PM 70.9 °F 66.4 °F 86% 30.01 in 10.0 mi South 9.2 mph - N/A   Clear
8:55 PM 69.4 °F 66.6 °F 91% 30.01 in 10.0 mi South 6.9 mph - N/A   Clear
9:15 PM 68.0 °F 66.6 °F 95% 30.01 in 10.0 mi South 5.8 mph - N/A   Clear
9:35 PM 66.2 °F 66.2 °F 100% 30.00 in 10.0 mi SSE 5.8 mph - N/A   Clear
9:55 PM 66.2 °F 66.2 °F 100% 29.99 in 10.0 mi SSE 6.9 mph - N/A   Clear
10:15 PM 66.2 °F 66.2 °F 100% 30.01 in 10.0 mi South 5.8 mph - N/A   Clear
10:35 PM 66.0 °F 66.0 °F 100% 30.01 in 10.0 mi South 6.9 mph - N/A   Clear
10:55 PM 65.3 °F 65.3 °F 100% 30.01 in 10.0 mi South 6.9 mph - N/A   Clear
11:15 PM 66.0 °F 66.0 °F 100% 30.00 in 7.0 mi South 8.1 mph - N/A   Clear
11:35 PM 65.8 °F 65.8 °F 100% 30.00 in 4.0 mi South 8.1 mph - N/A   Clear
11:55 PM 66.2 °F 66.2 °F 100% 30.01 in 10.0 mi South 8.1 mph - N/A   Clear